UAL1013 KDEN-KLAX

Flight info

Callsign UAL1013
Flight time 2h 8m
Altitude 38000
Route BAYLR6 TEHRU JASSE Q90 DNERO ANJLL4
Aircraft B38M/M-SDE1FGHILORVWXY/HB1

Departure

Time 2026-04-26 19:45
Airport Denver International Airport (KDEN)

Arrival

Time 2026-04-26 21:53
Airport Los Angeles International Airport (KLAX)
Time Latitude Longitude Altitude Speed Heading
2026-04-26 19:11 39.85800 -104.67677 5382 ft 0 kts 360°
2026-04-26 19:33 39.85790 -104.67677 5382 ft 3 kts 360°
2026-04-26 19:33 39.85771 -104.67677 5382 ft 3 kts 360°
2026-04-26 19:33 39.85753 -104.67677 5380 ft 3 kts 360°
2026-04-26 19:34 39.85741 -104.67677 5380 ft 0 kts 360°
2026-04-26 19:38 39.85742 -104.67677 5364 ft 0 kts 360°
2026-04-26 19:38 39.85747 -104.67685 5364 ft 3 kts 302°
2026-04-26 19:38 39.85732 -104.67759 5382 ft 13 kts 247°
2026-04-26 19:38 39.85707 -104.67837 5383 ft 14 kts 247°
2026-04-26 19:39 39.85673 -104.67961 5383 ft 15 kts 260°
2026-04-26 19:39 39.85669 -104.68094 5383 ft 15 kts 272°
2026-04-26 19:39 39.85685 -104.68231 5382 ft 16 kts 275°
2026-04-26 19:39 39.85674 -104.68373 5375 ft 16 kts 233°
2026-04-26 19:40 39.85575 -104.68399 5378 ft 14 kts 179°
2026-04-26 19:40 39.85486 -104.68401 5382 ft 12 kts 180°
2026-04-26 19:40 39.85404 -104.68402 5383 ft 12 kts 180°
2026-04-26 19:40 39.85307 -104.68402 5383 ft 16 kts 180°
2026-04-26 19:41 39.85211 -104.68440 5379 ft 14 kts 242°
2026-04-26 19:41 39.85205 -104.68574 5378 ft 17 kts 268°
2026-04-26 19:41 39.85202 -104.68759 5368 ft 23 kts 268°
2026-04-26 19:41 39.85199 -104.68909 5363 ft 27 kts 269°
2026-04-26 19:42 39.85197 -104.69221 5349 ft 26 kts 271°
2026-04-26 19:42 39.85202 -104.69412 5340 ft 16 kts 270°
2026-04-26 19:42 39.85202 -104.69497 5343 ft 7 kts 270°
2026-04-26 19:42 39.85202 -104.69560 5342 ft 7 kts 270°
2026-04-26 19:43 39.85221 -104.69639 5342 ft 10 kts 316°
2026-04-26 19:43 39.85291 -104.69658 5339 ft 13 kts
2026-04-26 19:43 39.85537 -104.69654 5338 ft 60 kts
2026-04-26 19:43 39.86108 -104.69648 5341 ft 103 kts
2026-04-26 19:44 39.86937 -104.69639 5340 ft 136 kts 360°
2026-04-26 19:44 39.87969 -104.69630 5435 ft 153 kts 357°
2026-04-26 19:44 39.89064 -104.69610 5715 ft 163 kts 359°
2026-04-26 19:44 39.90229 -104.69721 6026 ft 173 kts 340°
2026-04-26 19:45 39.91130 -104.70764 6363 ft 184 kts 294°
2026-04-26 19:45 39.91215 -104.72442 6730 ft 192 kts 255°
2026-04-26 19:45 39.90534 -104.73962 7094 ft 202 kts 222°
2026-04-26 19:45 39.89358 -104.75063 7472 ft 217 kts 212°
2026-04-26 19:46 39.88136 -104.76355 7856 ft 235 kts 224°
2026-04-26 19:46 39.86968 -104.77958 8278 ft 253 kts 225°
2026-04-26 19:46 39.85714 -104.79686 8696 ft 270 kts 225°
2026-04-26 19:46 39.84382 -104.81479 9214 ft 281 kts 224°
2026-04-26 19:47 39.83002 -104.83306 9809 ft 285 kts 224°
2026-04-26 19:47 39.82059 -104.84542 9942 ft 285 kts 223°
2026-04-26 19:47 39.80206 -104.86954 9996 ft 284 kts 224°
2026-04-26 19:47 39.79029 -104.89081 10338 ft 299 kts 243°
2026-04-26 19:48 39.78244 -104.91657 10716 ft 312 kts 245°
2026-04-26 19:48 39.77395 -104.94295 11281 ft 318 kts 245°
2026-04-26 19:48 39.76540 -104.96943 12072 ft 318 kts 245°
2026-04-26 19:48 39.75685 -104.99589 12974 ft 317 kts 245°
2026-04-26 19:49 39.74830 -105.02232 13790 ft 317 kts 245°
2026-04-26 19:49 39.73972 -105.04886 14484 ft 320 kts 245°
2026-04-26 19:49 39.73104 -105.07561 15144 ft 324 kts 246°
2026-04-26 19:49 39.72225 -105.10270 15806 ft 326 kts 246°
2026-04-26 19:50 39.71338 -105.13002 16428 ft 330 kts 246°
2026-04-26 19:50 39.70441 -105.15759 17066 ft 333 kts 246°
2026-04-26 19:50 39.69537 -105.18540 17688 ft 336 kts 246°
2026-04-26 19:50 39.68621 -105.21350 18260 ft 339 kts 246°
2026-04-26 19:51 39.67699 -105.24175 18764 ft 342 kts 246°
2026-04-26 19:51 39.66767 -105.27031 19285 ft 345 kts 246°
2026-04-26 19:51 39.65827 -105.29910 19790 ft 348 kts 246°
2026-04-26 19:51 39.64875 -105.32819 20293 ft 351 kts 246°
2026-04-26 19:52 39.63930 -105.35707 20780 ft 354 kts 246°
2026-04-26 19:52 39.62961 -105.38663 21237 ft 358 kts 246°
2026-04-26 19:52 39.61986 -105.41637 21733 ft 360 kts 245°
2026-04-26 19:52 39.60999 -105.44640 22203 ft 363 kts 245°
2026-04-26 19:53 39.60004 -105.47668 22680 ft 366 kts 245°
2026-04-26 19:53 39.59001 -105.50715 23127 ft 369 kts 245°
2026-04-26 19:53 39.57991 -105.53781 23528 ft 371 kts 245°
2026-04-26 19:53 39.56973 -105.56870 23902 ft 373 kts 245°
2026-04-26 19:54 39.55948 -105.59972 24268 ft 376 kts 245°
2026-04-26 19:54 39.55012 -105.63142 24648 ft 378 kts 249°
2026-04-26 19:54 39.54137 -105.66369 25021 ft 381 kts 248°
2026-04-26 19:54 39.53246 -105.69608 25393 ft 383 kts 248°
2026-04-26 19:55 39.52343 -105.72862 25792 ft 385 kts 248°
2026-04-26 19:55 39.51433 -105.76135 26136 ft 387 kts 248°
2026-04-26 19:55 39.50517 -105.79421 26467 ft 389 kts 248°
2026-04-26 19:55 39.49593 -105.82728 26819 ft 392 kts 248°
2026-04-26 19:56 39.48664 -105.86053 27127 ft 394 kts 248°
2026-04-26 19:56 39.47727 -105.89397 27477 ft 396 kts 247°
2026-04-26 19:56 39.46786 -105.92755 27800 ft 398 kts 247°
2026-04-26 19:56 39.45840 -105.96125 28108 ft 400 kts 247°
2026-04-26 19:57 39.44884 -105.99524 28430 ft 402 kts 247°
2026-04-26 19:57 39.43923 -106.02938 28758 ft 405 kts 247°
2026-04-26 19:57 39.42957 -106.06368 29079 ft 406 kts 247°
2026-04-26 19:57 39.41987 -106.09804 29403 ft 408 kts 247°
2026-04-26 19:58 39.41011 -106.13261 29723 ft 410 kts 247°
2026-04-26 19:58 39.40030 -106.16730 30012 ft 411 kts 247°
2026-04-26 19:58 39.39049 -106.20207 30309 ft 412 kts 247°
2026-04-26 19:58 39.38068 -106.23680 30630 ft 411 kts 247°
2026-04-26 19:59 39.37086 -106.27154 30943 ft 411 kts 247°
2026-04-26 19:59 39.36106 -106.30615 31241 ft 411 kts 247°
2026-04-26 19:59 39.35174 -106.33902 31516 ft 411 kts 247°
2026-04-26 19:59 39.34190 -106.37367 31786 ft 411 kts 247°
2026-04-26 20:00 39.33204 -106.40835 32056 ft 411 kts 247°
2026-04-26 20:00 39.32221 -106.44291 32389 ft 409 kts 248°
2026-04-26 20:00 39.31241 -106.47728 32732 ft 406 kts 248°
2026-04-26 20:00 39.30267 -106.51139 33091 ft 404 kts 248°
2026-04-26 20:01 39.29298 -106.54531 33452 ft 401 kts 248°
2026-04-26 20:01 39.28334 -106.57901 33773 ft 400 kts 248°
2026-04-26 20:01 39.27370 -106.61264 33988 ft 399 kts 248°
2026-04-26 20:01 39.26411 -106.64610 34194 ft 398 kts 248°
2026-04-26 20:02 39.25448 -106.67962 34389 ft 398 kts 248°
2026-04-26 20:02 39.24447 -106.71292 34584 ft 397 kts 242°
2026-04-26 20:02 39.22926 -106.74248 34803 ft 395 kts 233°
2026-04-26 20:02 39.21851 -106.76140 34893 ft 396 kts 234°
2026-04-26 20:03 39.19680 -106.79995 35070 ft 397 kts 234°
2026-04-26 20:03 39.18039 -106.82866 35260 ft 397 kts 234°
2026-04-26 20:03 39.16392 -106.85728 35420 ft 397 kts 234°
2026-04-26 20:03 39.14741 -106.88586 35575 ft 397 kts 234°
2026-04-26 20:04 39.13087 -106.91446 35700 ft 398 kts 234°
2026-04-26 20:04 39.11433 -106.94301 35828 ft 398 kts 234°
2026-04-26 20:04 39.09780 -106.97152 36014 ft 397 kts 234°
2026-04-26 20:04 39.08124 -107.00005 36181 ft 397 kts 234°
2026-04-26 20:05 39.06472 -107.02849 36333 ft 397 kts 234°
2026-04-26 20:05 39.04818 -107.05694 36531 ft 396 kts 234°
2026-04-26 20:05 39.03174 -107.08522 36684 ft 396 kts 234°
2026-04-26 20:05 39.01546 -107.11316 36847 ft 395 kts 234°
2026-04-26 20:06 38.98240 -107.16986 37045 ft 397 kts 234°
2026-04-26 20:06 38.96585 -107.19820 37203 ft 396 kts 234°
2026-04-26 20:06 38.94930 -107.22651 37337 ft 396 kts 234°
2026-04-26 20:07 38.91621 -107.28306 37562 ft 396 kts 234°
2026-04-26 20:07 38.89967 -107.31130 37677 ft 395 kts 234°
2026-04-26 20:07 38.88313 -107.33950 37741 ft 395 kts 234°
2026-04-26 20:08 38.85002 -107.39587 37742 ft 396 kts 234°
2026-04-26 20:08 38.81688 -107.45221 37738 ft 396 kts 234°
2026-04-26 20:09 38.78378 -107.50838 37742 ft 394 kts 234°
2026-04-26 20:09 38.75066 -107.56449 37738 ft 395 kts 234°
2026-04-26 20:10 38.71748 -107.62059 37752 ft 394 kts 234°
2026-04-26 20:10 38.68436 -107.67649 37757 ft 394 kts 234°
2026-04-26 20:11 38.65121 -107.73236 37785 ft 393 kts 234°
2026-04-26 20:12 38.60184 -107.81539 37805 ft 392 kts 234°
2026-04-26 20:12 38.56888 -107.87069 37830 ft 391 kts 234°
2026-04-26 20:13 38.53596 -107.92584 37818 ft 389 kts 234°
2026-04-26 20:13 38.50313 -107.98075 37817 ft 389 kts 234°
2026-04-26 20:14 38.47026 -108.03562 37811 ft 389 kts 234°
2026-04-26 20:14 38.43739 -108.09041 37782 ft 389 kts 234°
2026-04-26 20:15 38.40442 -108.14527 37761 ft 390 kts 234°
2026-04-26 20:15 38.37129 -108.20029 37746 ft 391 kts 234°
2026-04-26 20:16 38.33832 -108.25497 37737 ft 392 kts 234°
2026-04-26 20:16 38.30501 -108.31011 37717 ft 392 kts 234°
2026-04-26 20:17 38.27169 -108.36517 37723 ft 392 kts 234°
2026-04-26 20:17 38.23838 -108.42013 37718 ft 392 kts 234°
2026-04-26 20:18 38.20499 -108.47512 37714 ft 392 kts 234°
2026-04-26 20:18 38.17167 -108.52991 37713 ft 391 kts 234°
2026-04-26 20:19 38.13837 -108.58456 37704 ft 391 kts 234°
2026-04-26 20:19 38.10507 -108.63913 37708 ft 390 kts 234°
2026-04-26 20:20 38.07205 -108.69318 37707 ft 390 kts 234°
2026-04-26 20:20 38.03883 -108.74743 37692 ft 389 kts 234°
2026-04-26 20:21 38.00543 -108.80191 37706 ft 389 kts 234°
2026-04-26 20:21 37.97243 -108.85561 37701 ft 389 kts 233°
2026-04-26 20:22 37.93920 -108.90964 37700 ft 388 kts 234°
2026-04-26 20:22 37.90592 -108.96363 37698 ft 388 kts 234°
2026-04-26 20:23 37.87270 -109.01744 37702 ft 387 kts 233°
2026-04-26 20:23 37.83952 -109.07112 37694 ft 387 kts 233°
2026-04-26 20:24 37.81192 -109.11569 37696 ft 387 kts 233°
2026-04-26 20:24 37.77330 -109.17795 37718 ft 387 kts 233°
2026-04-26 20:25 37.74007 -109.23142 37746 ft 387 kts 233°
2026-04-26 20:25 37.70680 -109.28489 37777 ft 387 kts 233°
2026-04-26 20:26 37.67887 -109.32970 37791 ft 387 kts 233°
2026-04-26 20:26 37.64554 -109.38310 37824 ft 387 kts 233°
2026-04-26 20:27 37.61242 -109.43608 37822 ft 387 kts 233°
2026-04-26 20:27 37.57901 -109.48943 37823 ft 387 kts 233°
2026-04-26 20:28 37.54563 -109.54266 37816 ft 387 kts 233°
2026-04-26 20:28 37.51219 -109.59587 37807 ft 387 kts 233°
2026-04-26 20:29 37.47876 -109.64902 37781 ft 387 kts 234°
2026-04-26 20:29 37.44528 -109.70211 37760 ft 387 kts 234°
2026-04-26 20:30 37.41190 -109.75501 37734 ft 386 kts 234°
2026-04-26 20:30 37.37845 -109.80790 37701 ft 385 kts 234°
2026-04-26 20:31 37.34508 -109.86059 37692 ft 385 kts 234°
2026-04-26 20:31 37.31169 -109.91324 37692 ft 385 kts 234°
2026-04-26 20:32 37.27853 -109.96544 37695 ft 384 kts 234°
2026-04-26 20:32 37.24518 -110.01784 37688 ft 384 kts 234°
2026-04-26 20:33 37.21188 -110.07011 37683 ft 383 kts 234°
2026-04-26 20:33 37.17847 -110.12244 37691 ft 384 kts 234°
2026-04-26 20:34 37.14513 -110.17460 37687 ft 383 kts 233°
2026-04-26 20:34 37.11176 -110.22671 37689 ft 383 kts 233°
2026-04-26 20:35 37.07841 -110.27870 37694 ft 383 kts 233°
2026-04-26 20:35 37.04505 -110.33064 37689 ft 382 kts 233°
2026-04-26 20:36 37.01172 -110.38245 37660 ft 382 kts 233°
2026-04-26 20:36 36.97832 -110.43429 37694 ft 383 kts 233°
2026-04-26 20:37 36.94497 -110.48597 37690 ft 382 kts 233°
2026-04-26 20:37 36.91156 -110.53766 37690 ft 382 kts 233°
2026-04-26 20:38 36.87820 -110.58921 37715 ft 382 kts 233°
2026-04-26 20:38 36.84494 -110.64050 37689 ft 382 kts 233°
2026-04-26 20:39 36.81144 -110.69210 37684 ft 383 kts 233°
2026-04-26 20:39 36.77790 -110.74367 37705 ft 383 kts 233°
2026-04-26 20:40 36.74439 -110.79512 37700 ft 382 kts 233°
2026-04-26 20:40 36.71082 -110.84658 37696 ft 382 kts 233°
2026-04-26 20:41 36.67732 -110.89786 37699 ft 381 kts 233°
2026-04-26 20:41 36.64385 -110.94901 37708 ft 381 kts 233°
2026-04-26 20:42 36.61039 -111.00007 37718 ft 380 kts 233°
2026-04-26 20:42 36.57694 -111.05104 37715 ft 380 kts 233°
2026-04-26 20:43 36.54354 -111.10185 37710 ft 379 kts 233°
2026-04-26 20:43 36.51037 -111.15225 37715 ft 378 kts 233°
2026-04-26 20:44 36.47702 -111.20283 37722 ft 378 kts 233°
2026-04-26 20:44 36.44370 -111.25329 37714 ft 377 kts 233°
2026-04-26 20:45 36.41042 -111.30363 37723 ft 377 kts 233°
2026-04-26 20:45 36.37713 -111.35391 37727 ft 377 kts 233°
2026-04-26 20:46 36.34389 -111.40406 37723 ft 376 kts 233°
2026-04-26 20:46 36.31066 -111.45410 37716 ft 375 kts 233°
2026-04-26 20:47 36.27768 -111.50372 37726 ft 375 kts 233°
2026-04-26 20:47 36.24446 -111.55362 37723 ft 376 kts 233°
2026-04-26 20:48 36.21118 -111.60353 37721 ft 376 kts 233°
2026-04-26 20:48 36.17785 -111.65345 37745 ft 377 kts 233°
2026-04-26 20:49 36.14440 -111.70345 37759 ft 377 kts 233°
2026-04-26 20:49 36.11087 -111.75353 37755 ft 378 kts 233°
2026-04-26 20:50 36.07762 -111.80387 37782 ft 376 kts 239°
2026-04-26 20:50 36.05622 -111.86231 37867 ft 375 kts 248°
2026-04-26 20:51 36.03666 -111.92210 37844 ft 375 kts 248°
2026-04-26 20:51 36.01745 -111.98187 37842 ft 374 kts 248°
2026-04-26 20:52 35.99826 -112.04169 37943 ft 375 kts 248°
2026-04-26 20:52 35.97906 -112.10141 37945 ft 375 kts 248°
2026-04-26 20:53 35.95980 -112.16122 37945 ft 375 kts 248°
2026-04-26 20:53 35.94066 -112.22056 37949 ft 374 kts 248°
2026-04-26 20:54 35.92139 -112.28015 37934 ft 374 kts 248°
2026-04-26 20:54 35.90213 -112.33960 37906 ft 373 kts 248°
2026-04-26 20:55 35.88289 -112.39890 37876 ft 372 kts 248°
2026-04-26 20:55 35.86364 -112.45808 37845 ft 372 kts 248°
2026-04-26 20:56 35.84438 -112.51717 37816 ft 371 kts 248°
2026-04-26 20:56 35.82512 -112.57614 37795 ft 370 kts 248°
2026-04-26 20:57 35.80585 -112.63506 37798 ft 371 kts 248°
2026-04-26 20:57 35.78655 -112.69393 37801 ft 371 kts 248°
2026-04-26 20:58 35.76722 -112.75277 37798 ft 371 kts 248°
2026-04-26 20:58 35.74786 -112.81158 37801 ft 371 kts 248°
2026-04-26 20:59 35.72846 -112.87041 37803 ft 371 kts 248°
2026-04-26 20:59 35.70905 -112.92917 37804 ft 371 kts 248°
2026-04-26 21:00 35.68970 -112.98759 37803 ft 371 kts 248°
2026-04-26 21:00 35.67022 -113.04634 37802 ft 371 kts 248°
2026-04-26 21:01 35.65065 -113.10523 37802 ft 371 kts 248°
2026-04-26 21:01 35.63106 -113.16409 37800 ft 372 kts 248°
2026-04-26 21:02 35.61143 -113.22295 37796 ft 372 kts 248°
2026-04-26 21:02 35.59174 -113.28183 37803 ft 372 kts 248°
2026-04-26 21:03 35.57205 -113.34066 37799 ft 372 kts 248°
2026-04-26 21:03 35.55246 -113.39911 37794 ft 372 kts 248°
2026-04-26 21:04 35.53270 -113.45792 37799 ft 372 kts 248°
2026-04-26 21:04 35.51295 -113.51658 37796 ft 372 kts 248°
2026-04-26 21:05 35.49316 -113.57526 37794 ft 372 kts 248°
2026-04-26 21:05 35.47336 -113.63384 37813 ft 372 kts 248°
2026-04-26 21:06 35.45354 -113.69241 37836 ft 372 kts 248°
2026-04-26 21:06 35.43361 -113.75116 37861 ft 373 kts 248°
2026-04-26 21:07 35.41369 -113.80978 37885 ft 372 kts 248°
2026-04-26 21:07 35.39374 -113.86838 37904 ft 373 kts 248°
2026-04-26 21:08 35.37373 -113.92702 37917 ft 372 kts 248°
2026-04-26 21:08 35.35385 -113.98517 37926 ft 372 kts 248°
2026-04-26 21:09 35.33379 -114.04374 37921 ft 372 kts 248°
2026-04-26 21:09 35.31374 -114.10218 37901 ft 371 kts 248°
2026-04-26 21:10 35.29366 -114.16061 37889 ft 372 kts 248°
2026-04-26 21:10 35.27356 -114.21895 37874 ft 372 kts 248°
2026-04-26 21:11 35.25358 -114.27684 37831 ft 372 kts 247°
2026-04-26 21:11 35.23344 -114.33511 37840 ft 371 kts 247°
2026-04-26 21:12 35.21326 -114.39339 37854 ft 372 kts 247°
2026-04-26 21:12 35.19647 -114.44177 37856 ft 372 kts 247°
2026-04-26 21:13 35.17623 -114.50001 37860 ft 372 kts 247°
2026-04-26 21:13 35.15598 -114.55822 37859 ft 372 kts 247°
2026-04-26 21:14 35.13569 -114.61644 37859 ft 373 kts 248°
2026-04-26 21:14 35.11545 -114.67473 37864 ft 373 kts 248°
2026-04-26 21:15 35.09513 -114.73314 37853 ft 372 kts 248°
2026-04-26 21:15 35.07488 -114.79128 37853 ft 372 kts 248°
2026-04-26 21:16 35.05474 -114.84901 37841 ft 372 kts 248°
2026-04-26 21:16 35.03394 -114.90673 37827 ft 372 kts 242°
2026-04-26 21:17 35.00939 -114.96231 37833 ft 372 kts 244°
2026-04-26 21:17 34.98528 -115.01802 37825 ft 371 kts 244°
2026-04-26 21:18 34.96122 -115.07376 37829 ft 371 kts 244°
2026-04-26 21:18 34.93715 -115.12945 37829 ft 371 kts 244°
2026-04-26 21:19 34.91311 -115.18500 37830 ft 370 kts 244°
2026-04-26 21:19 34.88920 -115.24016 37826 ft 370 kts 244°
2026-04-26 21:20 34.86519 -115.29546 37832 ft 369 kts 244°
2026-04-26 21:20 34.84117 -115.35067 37832 ft 369 kts 244°
2026-04-26 21:21 34.81716 -115.40580 37830 ft 368 kts 244°
2026-04-26 21:21 34.79353 -115.46100 37825 ft 367 kts 248°
2026-04-26 21:22 34.77300 -115.51783 37828 ft 367 kts 247°
2026-04-26 21:22 34.75215 -115.57438 37832 ft 366 kts 247°
2026-04-26 21:23 34.72072 -115.65915 37835 ft 366 kts 246°
2026-04-26 21:23 34.69977 -115.71550 37838 ft 366 kts 246°
2026-04-26 21:24 34.67878 -115.77186 37828 ft 366 kts 246°
2026-04-26 21:24 34.65760 -115.82866 37523 ft 373 kts 246°
2026-04-26 21:25 34.64686 -115.85740 37305 ft 373 kts 246°
2026-04-26 21:25 34.63615 -115.88612 37095 ft 374 kts 247°
2026-04-26 21:25 34.62568 -115.91461 36883 ft 375 kts 247°
2026-04-26 21:25 34.61502 -115.94357 36666 ft 376 kts 246°
2026-04-26 21:26 34.60434 -115.97255 36473 ft 377 kts 246°
2026-04-26 21:26 34.59363 -116.00160 36274 ft 377 kts 246°
2026-04-26 21:26 34.58288 -116.03069 36080 ft 378 kts 246°
2026-04-26 21:26 34.57210 -116.05986 35878 ft 379 kts 246°
2026-04-26 21:27 34.56129 -116.08909 35684 ft 380 kts 246°
2026-04-26 21:27 34.55044 -116.11839 35493 ft 381 kts 246°
2026-04-26 21:27 34.53956 -116.14773 35306 ft 382 kts 246°
2026-04-26 21:27 34.52867 -116.17711 35109 ft 382 kts 246°
2026-04-26 21:28 34.51775 -116.20655 34917 ft 383 kts 246°
2026-04-26 21:28 34.50679 -116.23602 34718 ft 383 kts 246°
2026-04-26 21:28 34.49582 -116.26551 34532 ft 384 kts 246°
2026-04-26 21:28 34.48482 -116.29507 34336 ft 385 kts 246°
2026-04-26 21:29 34.47380 -116.32464 34142 ft 386 kts 246°
2026-04-26 21:29 34.46273 -116.35432 33953 ft 386 kts 246°
2026-04-26 21:29 34.45165 -116.38401 33724 ft 387 kts 246°
2026-04-26 21:29 34.44053 -116.41379 33491 ft 388 kts 246°
2026-04-26 21:30 34.42940 -116.44353 33268 ft 388 kts 246°
2026-04-26 21:30 34.41819 -116.47325 33044 ft 389 kts 245°
2026-04-26 21:30 34.40766 -116.49882 32847 ft 389 kts 244°
2026-04-26 21:30 34.39558 -116.52814 32619 ft 388 kts 245°
2026-04-26 21:31 34.38359 -116.55735 32398 ft 387 kts 245°
2026-04-26 21:31 34.37165 -116.58647 32176 ft 386 kts 245°
2026-04-26 21:31 34.35983 -116.61532 31526 ft 383 kts 245°
2026-04-26 21:31 34.34789 -116.64443 30617 ft 388 kts 245°
2026-04-26 21:32 34.33589 -116.67377 29807 ft 391 kts 245°
2026-04-26 21:32 34.32403 -116.70335 29163 ft 388 kts 245°
2026-04-26 21:32 34.31250 -116.73202 28702 ft 381 kts 245°
2026-04-26 21:32 34.30099 -116.76064 28176 ft 376 kts 245°
2026-04-26 21:33 34.28954 -116.78904 27608 ft 373 kts 245°
2026-04-26 21:33 34.27821 -116.81713 27070 ft 370 kts 246°
2026-04-26 21:33 34.26695 -116.84502 26532 ft 368 kts 245°
2026-04-26 21:33 34.25576 -116.87270 26001 ft 366 kts 245°
2026-04-26 21:34 34.24460 -116.90031 25464 ft 365 kts 245°
2026-04-26 21:34 34.23346 -116.92784 24939 ft 364 kts 246°
2026-04-26 21:34 34.22236 -116.95525 24407 ft 364 kts 246°
2026-04-26 21:34 34.21144 -116.98297 23860 ft 363 kts 250°
2026-04-26 21:35 34.20395 -117.01140 23226 ft 365 kts 253°
2026-04-26 21:35 34.19620 -117.04054 22654 ft 364 kts 253°
2026-04-26 21:35 34.18831 -117.06947 22148 ft 361 kts 253°
2026-04-26 21:35 34.18033 -117.09824 21617 ft 360 kts 253°
2026-04-26 21:36 34.17233 -117.12688 21085 ft 360 kts 253°
2026-04-26 21:36 34.16703 -117.14584 20732 ft 359 kts 253°
2026-04-26 21:36 34.15644 -117.18455 19930 ft 357 kts 253°
2026-04-26 21:36 34.14881 -117.21237 19435 ft 351 kts 253°
2026-04-26 21:37 34.14115 -117.24022 18925 ft 347 kts 253°
2026-04-26 21:37 34.13368 -117.26736 18424 ft 346 kts 253°
2026-04-26 21:37 34.12609 -117.29491 17851 ft 347 kts 253°
2026-04-26 21:37 34.11847 -117.32255 17302 ft 345 kts 253°
2026-04-26 21:38 34.11096 -117.34978 16785 ft 339 kts 253°
2026-04-26 21:38 34.10384 -117.37661 16244 ft 334 kts 255°
2026-04-26 21:38 34.09719 -117.40329 15720 ft 329 kts 255°
2026-04-26 21:38 34.09060 -117.42948 15243 ft 324 kts 255°
2026-04-26 21:39 34.08408 -117.45534 14776 ft 320 kts 255°
2026-04-26 21:39 34.07763 -117.48086 14299 ft 316 kts 256°
2026-04-26 21:39 34.07049 -117.50590 13841 ft 318 kts 249°
2026-04-26 21:39 34.06149 -117.53020 13419 ft 316 kts 249°
2026-04-26 21:40 34.05271 -117.55434 13061 ft 312 kts 249°
2026-04-26 21:40 34.04414 -117.57818 12690 ft 308 kts 249°
2026-04-26 21:40 34.03569 -117.60183 12319 ft 306 kts 249°
2026-04-26 21:40 34.02735 -117.62528 11943 ft 303 kts 250°
2026-04-26 21:41 34.01908 -117.64855 11577 ft 301 kts 249°
2026-04-26 21:41 34.01096 -117.67140 11208 ft 290 kts 250°
2026-04-26 21:41 34.00571 -117.69417 10820 ft 276 kts 265°
2026-04-26 21:41 34.00364 -117.71662 10486 ft 265 kts 264°
2026-04-26 21:42 34.00151 -117.73831 10166 ft 255 kts 264°
2026-04-26 21:42 33.99947 -117.75910 9824 ft 253 kts 265°
2026-04-26 21:42 33.99740 -117.78012 9475 ft 252 kts 264°
2026-04-26 21:42 33.99536 -117.80106 9143 ft 251 kts 264°
2026-04-26 21:43 33.99333 -117.82183 8825 ft 250 kts 264°
2026-04-26 21:43 33.99132 -117.84258 8487 ft 249 kts 264°
2026-04-26 21:43 33.98929 -117.86332 8173 ft 248 kts 264°
2026-04-26 21:43 33.98728 -117.88397 7877 ft 247 kts 264°
2026-04-26 21:44 33.98527 -117.90451 7559 ft 247 kts 263°
2026-04-26 21:44 33.98324 -117.92507 7238 ft 247 kts 264°
2026-04-26 21:44 33.98125 -117.94535 6937 ft 239 kts 264°
2026-04-26 21:44 33.97933 -117.96481 6660 ft 230 kts 264°
2026-04-26 21:45 33.97748 -117.98360 6387 ft 222 kts 264°
2026-04-26 21:45 33.97566 -118.00190 6103 ft 220 kts 263°
2026-04-26 21:45 33.97397 -118.02018 5809 ft 220 kts 264°
2026-04-26 21:45 33.97229 -118.03848 5545 ft 220 kts 264°
2026-04-26 21:46 33.97048 -118.05683 5252 ft 220 kts 264°
2026-04-26 21:46 33.96915 -118.06990 5068 ft 219 kts 263°
2026-04-26 21:46 33.96720 -118.08795 4847 ft 215 kts 263°
2026-04-26 21:46 33.96537 -118.10579 4619 ft 214 kts 263°
2026-04-26 21:47 33.96384 -118.12280 4783 ft 186 kts 265°
2026-04-26 21:47 33.96260 -118.13794 4792 ft 180 kts 265°
2026-04-26 21:47 33.96118 -118.15315 4334 ft 186 kts 263°
2026-04-26 21:47 33.95956 -118.16861 3963 ft 184 kts 263°
2026-04-26 21:48 33.95793 -118.18365 3652 ft 178 kts 262°
2026-04-26 21:48 33.95627 -118.19795 3380 ft 172 kts 262°
2026-04-26 21:48 33.95478 -118.21184 3112 ft 163 kts 262°
2026-04-26 21:48 33.95343 -118.22497 2843 ft 152 kts 263°
2026-04-26 21:49 33.95217 -118.23729 2632 ft 146 kts 263°
2026-04-26 21:49 33.95096 -118.24927 2418 ft 139 kts 262°
2026-04-26 21:49 33.94981 -118.26051 2226 ft 133 kts 262°
2026-04-26 21:49 33.94868 -118.27146 2027 ft 131 kts 263°
2026-04-26 21:50 33.94758 -118.28235 1860 ft 131 kts 262°
2026-04-26 21:50 33.94693 -118.28975 1741 ft 132 kts 263°
2026-04-26 21:50 33.94529 -118.30429 1477 ft 129 kts 259°
2026-04-26 21:50 33.94404 -118.31486 1271 ft 127 kts 264°
2026-04-26 21:51 33.94308 -118.32559 1100 ft 130 kts 263°
2026-04-26 21:51 33.94203 -118.33651 914 ft 133 kts 262°
2026-04-26 21:51 33.94091 -118.34755 707 ft 136 kts 264°
2026-04-26 21:51 33.93973 -118.35904 524 ft 138 kts 264°
2026-04-26 21:52 33.93866 -118.37054 360 ft 138 kts 261°
2026-04-26 21:52 33.93751 -118.38143 170 ft 129 kts 261°
2026-04-26 21:52 33.93652 -118.39138 110 ft 104 kts 263°
2026-04-26 21:52 33.93586 -118.39757 113 ft 50 kts 263°
2026-04-26 21:53 33.93564 -118.40090 113 ft 32 kts 272°
2026-04-26 21:53 33.93594 -118.40271 112 ft 18 kts 291°
2026-04-26 21:53 33.93626 -118.40419 109 ft 19 kts 269°
2026-04-26 21:53 33.93611 -118.40584 109 ft 21 kts 262°
2026-04-26 21:54 33.93595 -118.40753 108 ft 18 kts 268°
2026-04-26 21:54 33.93636 -118.40884 110 ft 16 kts 330°
2026-04-26 21:54 33.93748 -118.40905 107 ft 16 kts
2026-04-26 21:54 33.93799 -118.40784 105 ft 19 kts 83°
2026-04-26 21:55 33.93814 -118.40625 105 ft 18 kts 83°
2026-04-26 21:55 33.93829 -118.40483 105 ft 17 kts 83°
2026-04-26 21:55 33.93842 -118.40346 106 ft 17 kts 82°
2026-04-26 21:55 33.93856 -118.40204 107 ft 18 kts 83°
2026-04-26 21:56 33.93873 -118.40077 107 ft 12 kts 68°
2026-04-26 21:56 33.93948 -118.40053 102 ft 12 kts 353°
2026-04-26 21:56 33.94015 -118.40064 99 ft 10 kts 352°
2026-04-26 21:56 33.94080 -118.40075 99 ft 7 kts 352°
2026-04-26 21:57 33.94114 -118.40074 98 ft 2 kts 34°
2026-04-26 21:57 33.94118 -118.40053 99 ft 4 kts 88°
2026-04-26 21:57 33.94117 -118.40029 98 ft 1 kts 95°
2026-04-26 21:57 33.94117 -118.40028 98 ft 0 kts 95°